Location: Sabalos
(43.2860°N, 0.1414°E)
Time: 20:56:04
(UTC+00:00)

IRIDIUM 114 - Pass Details

Date: 05 July 2020
Orbit: 776 x 779 km, 86.4° (Epoch: 14 August)

Event Time Altitude Azimuth Distance (km) Brightness Sun altitude
Exits shadow 23:32:30 63° 159° (SSE) 871 4.2 -23.6°
Maximum altitude 23:33:20 79° 91° (E) 798 4.2 -23.7°
Drops below altitude 10° 23:38:35 10° 5° (N) 2,341 7.8 -23.8°
Sets 23:40:56 0° 5° (N) 3,273 8.9 -23.8°
